CAPE
115 458 848 1098 1203 1318 1276 1271 1180 845 954 961 903 1039 1099 1175 1189 1212 1303 1179 1171 1165 1135 993 904 724 757 875 821 645 618 581 593 482 406 352 371 331 508 392 304 344 407
193 522 936 1124 1441 1300 1331 1336 1173 932 998 1028 1076 1132 1104 1169 1095 1201 1246 1230 1074 1037 1011 791 603 502 464 163 506 493 419 387 355 257 265 207 190 329 450 433 355 392 385
315 728 1041 1236 1425 1308 1402 1293 1133 1091 1047 1019 1006 1021 1049 942 966 985 1098 1003 1007 903 786 745 648 739 566 350 313 345 430 294 203 132 66 69 193 277 244 294 432 333 265
504 849 836 1588 1396 1320 1314 1220 1300 1169 1111 1090 990 973 999 942 867 887 1056 1013 926 864 761 665 458 207 110 94 235 244 324 290 280 245 175 177 374 499 241 96 113 369 302
773 1035 1234 1599 1457 1270 1219 1155 1277 1208 1089 1050 1029 1029 1006 818 796 925 790 632 545 396 299 230 124 67 20 7 185 326 247 212 214 249 355 422 553 510 148 201 25 90 100
937 1170 1699 1589 1413 1225 1141 1214 1209 1241 1161 1044 958 958 899 804 717 471 213 11 0 2 241 147 117 84 63 59 61 100 100 149 153 218 269 295 436 409 363 352 278 95 23
1079 1510 1804 1612 1414 1204 1116 1210 1135 1154 1120 994 943 878 847 754 428 176 86 1 4 1 1 40 131 195 145 212 171 67 35 64 107 173 295 351 353 443 442 346 269 313 180
1241 1779 1707 1571 1346 1188 1252 1165 1104 1133 1059 1010 988 862 600 339 288 199 196 290 255 228 201 201 192 210 205 159 105 55 46 58 81 119 160 219 259 388 474 293 182 389 170
1597 1673 1619 1496 1322 1228 1283 1119 1069 1066 996 922 884 818 586 423 404 380 352 316 255 206 151 156 111 106 66 49 30 10 40 38 50 93 219 223 234 385 338 312 306 198 217
1655 1583 1423 1310 1261 1200 1166 1042 1002 897 791 731 592 494 419 373 350 349 316 256 94 19 7 11 6 5 5 3 0 0 0 0 0 34 127 233 281 319 289 310 253 235 225
1400 1369 1285 1150 1016 1041 958 815 632 397 205 147 164 118 142 143 114 46 38 1 3 4 2 2 4 2 2 2 0 0 0 0 0 1 97 161 223 350 325 258 252 200 159
1086 1235 1077 978 869 812 629 418 162 81 17 0 0 0 0 1 0 0 0 2 3 2 2 4 2 0 0 0 0 0 0 0 1 2 34 181 225 278 335 340 297 191 123
875 978 907 754 588 394 245 95 24 1 0 0 0 0 0 0 0 0 0 0 0 0 0 0 0 0 0 0 0 0 0 0 0 3 4 125 265 323 312 283 184 106 207
931 1008 629 512 330 123 81 9 0 0 0 0 0 0 0 0 0 0 0 0 0 0 0 0 0 0 0 0 0 0 0 0 0 2 4 2 127 294 291 298 303 230 192
768 712 582 373 203 72 0 0 0 0 0 0 0 0 0 0 0 0 0 0 0 0 0 0 0 0 0 0 0 0 0 0 0 0 1 5 4 49 246 206 264 258 198
519 471 419 221 15 0 0 0 0 0 0 0 0 0 0 0 0 0 0 0 0 0 0 0 0 0 0 0 0 0 0 0 0 0 0 0 4 6 13 181 196 113 100
460 221 219 24 0 0 0 0 0 0 0 0 0 0 0 0 0 0 0 0 0 0 0 0 0 0 0 0 0 0 0 0 0 0 0 0 0 0 6 6 12 200 127
218 169 43 3 1 0 0 0 0 0 0 0 0 0 0 0 0 0 0 0 0 0 0 0 0 0 0 0 0 0 0 0 0 0 0 0 0 0 0 5 6 4 79
128 8 3 3 2 0 0 0 0 0 0 0 0 0 0 0 0 0 0 0 0 0 0 0 0 0 0 0 0 0 0 0 0 0 0 0 0 0 0 0 1 2 3
2 1 2 3 4 0 0 0 0 0 0 0 0 0 0 0 0 0 0 0 0 0 0 0 0 0 0 0 0 0 0 0 0 0 0 0 0 0 0 0 0 0 2
1 2 2 3 4 1 0 0 0 0 0 0 0 0 0 0 0 0 0 0 0 0 0 0 0 0 0 0 0 0 0 0 0 0 0 0 0 0 0 0 0 0 0
1 2 3 4 5 3 0 0 0 0 0 0 0 0 0 0 0 0 0 0 0 0 0 0 0 0 0 0 0 0 0 0 0 0 0 0 0 0 0 0 0 0 0
0 1 4 6 3 2 0 0 0 0 0 0 0 0 0 0 0 0 0 0 0 0 0 0 0 0 0 0 0 0 0 0 0 0 0 0 0 0 0 0 0 0 0
2 4 5 4 2 1 0 0 0 0 0 0 0 0 0 0 0 0 0 0 0 0 0 0 0 0 0 0 0 0 0 0 0 0 0 0 0 0 0 0 0 0 0
2 2 3 3 2 5 0 0 0 0 0 0 0 0 0 0 0 0 0 0 0 0 0 0 0 0 0 0 0 0 0 0 0 0 0 0 0 0 0 0 0 0 0
3 2 2 2 2 3 2 0 0 0 0 0 0 0 0 0 0 0 0 0 0 0 0 0 0 0 0 0 0 0 0 0 0 0 0 0 0 0 0 0 0 0 0
CIN
-364 -140 -57 -18 -1 0 0 0 -3 -19 -9 -12 -12 -1 0 0 0 0 0 -1 -1 0 0 0 0 0 0 0 0 -6 -10 -7 -2 -2 -2 -4 -3 -3 0 -1 -2 0 0
-372 -148 -56 -16 0 -1 0 -1 -1 -11 -7 -6 -3 0 0 0 0 0 0 0 0 0 0 0 -2 0 -1 -21 -2 -6 -10 -12 -10 -11 -5 -5 -8 -5 0 -1 -1 0 0
-303 -131 -49 -10 -1 -3 0 -1 -1 0 -2 -5 -6 -1 0 0 0 -1 0 0 0 0 0 0 0 0 -1 -6 -8 -6 -4 -6 -10 -14 -23 -13 -5 -4 -3 -1 0 0 0
-251 -124 -81 -1 -3 -6 -2 -3 -1 -1 -1 0 -4 -4 -2 -1 -1 -3 0 -1 -2 0 0 0 -1 -12 -20 -20 -10 -9 -7 -10 -10 -12 -15 -6 -1 0 -1 -6 -3 0 0
-167 -102 -41 -5 -3 -10 -11 -11 -2 -1 -2 0 0 0 0 -4 -4 0 -9 -24 -28 -62 -37 -15 -24 -34 -45 -29 -18 -17 -17 -20 -16 -10 -4 -2 -1 0 -3 -1 -28 -7 -14
-127 -69 -9 -7 -7 -21 -21 -10 -2 0 -1 0 -1 0 0 0 -4 -30 -86 -176 -5 -150 -66 -41 -9 -24 -42 -42 -37 -37 -32 -27 -29 -12 -7 -3 -2 0 0 0 0 -13 -45
-96 -24 -3 -2 -8 -24 -23 -9 -4 0 0 -2 -2 0 0 -2 -29 -100 -135 -26 -27 -29 -66 -71 -9 -6 -10 -22 -26 -62 -82 -59 -42 -16 -3 -2 -1 0 0 0 0 0 -8
-69 -10 -2 0 -8 -16 -2 -8 -2 0 0 0 0 -4 -2 -24 -31 -64 -57 -8 -1 0 0 0 -7 -20 -14 -21 -68 -71 -90 -84 -60 -16 -7 -2 -1 0 0 0 0 0 -4
-7 -7 -3 0 -2 -1 0 -4 -1 0 0 0 -4 -4 -9 -13 -1 -2 0 0 0 0 -4 -9 -20 -45 -101 -82 -140 -139 -150 -149 -109 -33 -3 -2 -1 0 0 0 0 0 -1
-1 -2 -6 -4 -4 -2 -1 -1 0 0 -1 -2 -18 -23 -22 -15 -1 -1 0 -6 -35 -48 -19 -65 -158 0 0 -190 0 -45 0 0 0 -77 -6 0 -1 0 0 0 0 -2 0
-4 -4 -6 -13 -27 -17 -2 -6 -27 -64 -108 -113 -92 -85 -76 -57 -51 -87 -54 -4 0 0 0 0 0 0 0 0 0 0 0 0 0 -25 -20 -4 -1 0 -7 -1 0 0 -1
-25 -9 -20 -29 -39 -36 -43 -71 -124 -124 -61 0 0 0 0 0 0 0 0 0 0 0 0 0 0 0 0 0 0 0 0 0 0 0 -54 -1 -1 0 0 0 0 0 -4
-39 -27 -43 -60 -74 -104 -144 -184 -198 -4 0 0 0 0 0 0 0 0 0 0 0 0 0 0 0 0 0 0 0 0 0 0 0 0 0 -8 0 0 0 0 -1 -6 0
-22 -19 -91 -106 -136 -196 -209 -148 0 0 0 0 0 0 0 0 0 0 0 0 0 0 0 0 0 0 0 0 0 0 0 0 0 0 0 0 -28 0 0 0 0 0 -1
-24 -56 -71 -113 -174 -225 0 0 0 0 0 0 0 0 0 0 0 0 0 0 0 0 0 0 0 0 0 0 0 0 0 0 0 0 0 0 0 -32 0 -1 0 0 -1
-48 -66 -102 -130 -90 0 0 0 0 0 0 0 0 0 0 0 0 0 0 0 0 0 0 0 0 0 0 0 0 0 0 0 0 0 0 0 0 0 -94 -6 0 -1 0
-44 -119 -125 -169 0 0 0 0 0 0 0 0 0 0 0 0 0 0 0 0 0 0 0 0 0 0 0 0 0 0 0 0 0 0 0 0 0 0 0 0 -15 -1 -10
-72 -107 -214 0 0 0 0 0 0 0 0 0 0 0 0 0 0 0 0 0 0 0 0 0 0 0 0 0 0 0 0 0 0 0 0 0 0 0 0 0 0 0 -1
-93 -41 0 0 0 0 0 0 0 0 0 0 0 0 0 0 0 0 0 0 0 0 0 0 0 0 0 0 0 0 0 0 0 0 0 0 0 0 0 0 0 0 0
0 0 0 0 0 0 0 0 0 0 0 0 0 0 0 0 0 0 0 0 0 0 0 0 0 0 0 0 0 0 0 0 0 0 0 0 0 0 0 0 0 0 0
0 0 0 0 0 0 0 0 0 0 0 0 0 0 0 0 0 0 0 0 0 0 0 0 0 0 0 0 0 0 0 0 0 0 0 0 0 0 0 0 0 0 0
0 0 0 0 0 0 0 0 0 0 0 0 0 0 0 0 0 0 0 0 0 0 0 0 0 0 0 0 0 0 0 0 0 0 0 0 0 0 0 0 0 0 0
0 0 0 0 0 0 0 0 0 0 0 0 0 0 0 0 0 0 0 0 0 0 0 0 0 0 0 0 0 0 0 0 0 0 0 0 0 0 0 0 0 0 0
0 0 0 0 0 0 0 0 0 0 0 0 0 0 0 0 0 0 0 0 0 0 0 0 0 0 0 0 0 0 0 0 0 0 0 0 0 0 0 0 0 0 0
0 0 0 0 0 0 0 0 0 0 0 0 0 0 0 0 0 0 0 0 0 0 0 0 0 0 0 0 0 0 0 0 0 0 0 0 0 0 0 0 0 0 0
0 0 0 0 0 0 0 0 0 0 0 0 0 0 0 0 0 0 0 0 0 0 0 0 0 0 0 0 0 0 0 0 0 0 0 0 0 0 0 0 0 0 0
Wind_Speed
4 14 13 12 12 9 7 8 7 7 6 8 8 8 9 9 9 10 11 11 13 13 13 13 13 13 13 15 16 14 13 13 13 14 15 16 16 16 17 17 17 16 17
14 16 13 12 11 9 7 6 6 5 6 7 8 8 8 8 9 10 11 12 12 14 14 14 14 14 14 14 15 15 15 15 14 13 13 14 15 16 16 17 18 19 19
17 14 15 14 11 9 8 7 6 5 6 7 8 8 9 9 9 10 13 14 13 13 15 15 14 12 12 11 11 13 14 14 14 14 13 12 13 15 16 15 17 18 19
14 12 15 13 12 11 10 9 7 7 6 7 7 7 8 10 11 13 15 14 15 14 13 14 12 11 9 8 9 10 12 12 12 11 10 11 13 15 16 15 15 15 16
12 11 13 14 13 12 11 11 8 8 7 7 7 9 10 10 13 15 14 13 14 14 12 10 10 10 8 8 11 12 12 12 11 10 10 10 11 15 16 16 16 16 16
10 11 13 14 14 13 12 11 10 9 11 10 10 10 10 11 11 11 11 11 13 13 15 9 8 7 10 10 10 10 10 10 10 9 10 11 12 15 16 16 17 17 17
11 10 12 13 13 13 12 11 11 11 12 13 13 13 12 12 11 10 9 9 10 10 11 11 8 8 8 9 10 10 8 7 7 9 9 10 12 13 14 15 15 16 17
13 11 11 12 12 12 12 12 12 12 13 14 14 16 13 12 13 13 14 13 14 15 13 13 14 12 9 10 12 12 10 7 7 8 9 9 11 12 12 14 15 16 16
12 12 11 10 10 10 11 12 13 13 13 13 14 16 14 14 15 15 15 15 15 16 15 17 20 19 19 11 9 10 10 8 7 8 9 10 11 12 13 13 14 15 15
12 12 12 11 10 9 9 11 12 11 11 11 13 16 17 14 16 18 18 16 16 17 17 17 15 14 13 13 12 11 11 8 9 9 10 11 12 12 12 13 13 14 14
12 13 13 12 11 9 9 9 9 11 12 13 14 15 15 12 13 14 15 16 17 17 16 14 13 12 10 10 9 12 11 9 9 9 9 11 11 12 12 12 13 13 13
16 15 14 14 12 11 9 9 8 10 9 9 10 10 10 11 11 11 12 14 16 16 15 14 13 12 11 8 6 9 9 9 10 11 12 12 12 12 12 12 12 13 13
17 15 16 15 14 12 10 9 8 7 7 8 8 8 10 10 8 7 8 8 10 12 12 11 11 11 12 11 11 11 10 10 11 12 14 14 13 12 12 12 12 12 13
19 18 16 16 15 12 11 9 8 8 8 8 8 9 10 8 7 7 7 8 10 10 12 11 11 11 11 11 11 11 11 10 9 11 13 16 16 12 12 12 12 13 13
19 19 18 17 16 14 11 10 9 10 9 9 9 9 9 9 8 5 6 6 8 10 11 11 11 11 11 10 9 9 9 10 11 10 11 13 16 16 14 13 12 12 13
20 20 19 18 16 15 14 12 11 10 10 11 11 10 9 8 7 4 5 6 7 9 10 10 10 10 9 10 11 9 9 11 12 13 13 13 15 17 19 19 16 12 12
22 20 19 18 17 16 15 14 13 12 11 12 11 10 9 7 6 5 4 5 6 8 10 10 10 9 9 9 10 10 10 10 11 13 14 14 13 14 17 19 23 13 15
23 23 20 19 18 17 16 15 14 13 13 12 10 9 8 6 5 3 3 3 4 5 6 7 8 8 8 8 9 10 10 11 12 13 13 13 13 13 14 17 19 17 16
23 23 22 21 20 18 17 15 14 14 13 12 11 9 8 6 4 3 2 2 2 2 3 4 4 5 6 7 8 9 10 12 13 13 13 13 14 13 15 16 16 18 18
26 24 23 21 21 18 18 16 15 14 13 12 12 10 9 7 5 4 3 3 2 1 1 0 2 3 4 5 7 9 11 12 13 14 14 14 14 15 15 16 16 16 17
25 25 25 25 24 22 21 20 18 18 15 13 12 11 10 8 6 5 4 3 2 2 3 3 1 0 3 3 7 9 12 13 14 15 16 16 16 16 17 17 17 17 17
26 25 26 26 25 23 22 21 20 19 16 15 13 13 11 9 7 6 5 4 3 2 2 3 3 5 7 10 11 11 14 15 16 18 17 17 17 17 17 18 17 18 18
26 26 28 25 27 24 21 20 19 18 17 18 16 15 13 11 9 8 6 5 4 3 3 2 3 5 7 12 10 14 18 20 17 19 19 18 17 17 17 18 18 18 18
26 25 26 26 26 26 23 23 23 25 23 21 19 18 15 13 11 9 7 6 5 5 3 2 5 8 8 9 13 16 16 14 18 20 19 18 17 17 18 18 18 19 19
26 26 26 25 28 25 27 24 23 33 19 17 20 18 17 14 13 11 9 8 7 6 5 5 8 9 10 10 14 14 16 18 17 19 21 19 19 19 18 18 19 19 19
24 25 24 26 28 29 24 25 24 26 22 22 21 19 18 15 14 13 10 9 8 7 7 8 9 10 11 13 15 15 16 19 19 20 21 20 19 20 20 19 19 19 19
Wind_Direction
141 131 124 121 118 113 106 99 87 76 69 66 65 65 63 61 59 55 54 55 57 61 60 57 58 55 54 58 61 58 53 54 56 58 58 59 54 51 48 46 47 45 46
127 130 127 126 120 117 114 109 98 85 77 72 71 67 67 62 61 57 57 58 58 61 62 60 60 60 60 61 61 58 55 56 56 55 53 53 53 50 46 46 48 51 48
131 129 126 127 121 118 114 111 103 94 85 80 74 71 70 68 67 64 67 63 60 59 62 63 63 61 57 55 53 57 58 57 55 54 52 48 47 48 45 40 44 48 50
135 133 129 127 123 119 114 109 102 96 90 83 77 74 74 77 78 77 74 69 65 61 57 61 62 57 53 48 50 56 54 52 50 47 42 40 41 47 43 40 40 40 44
142 141 133 127 123 120 115 110 104 98 91 84 80 80 79 83 87 83 75 65 62 62 54 52 56 56 52 51 60 63 57 50 45 40 35 34 35 45 45 44 43 42 41
150 149 136 130 125 122 118 114 107 100 94 89 82 84 85 86 88 85 71 69 61 52 57 44 45 47 61 60 56 52 49 43 39 30 31 35 37 48 48 46 44 47 48
157 162 144 135 130 123 119 116 111 105 98 94 91 84 85 88 87 76 68 70 66 57 53 54 50 43 55 63 55 46 38 29 26 24 22 25 36 43 44 45 38 43 51
156 160 154 145 138 129 121 118 114 109 102 97 94 91 89 86 83 81 78 79 75 69 61 61 59 56 51 48 51 45 34 24 15 11 14 18 32 36 37 42 39 41 47
170 165 169 162 152 141 129 122 118 113 107 101 96 91 90 89 85 84 84 80 75 70 65 66 70 67 64 43 38 40 34 22 9 358 6 14 28 33 35 41 40 38 38
178 177 172 177 167 159 143 129 123 120 116 109 99 92 89 88 87 87 84 77 72 70 68 68 64 62 54 50 45 44 37 24 14 3 2 16 25 29 31 35 34 34 31
181 176 175 173 179 168 151 142 133 125 119 114 104 97 90 91 88 85 80 75 71 69 68 64 61 57 51 40 37 40 32 17 11 355 345 10 15 23 25 29 33 31 31
184 171 169 167 165 158 158 150 148 137 134 129 120 109 99 98 94 88 78 73 68 65 61 58 55 52 47 35 22 31 28 20 14 3 351 2 16 14 20 22 24 27 29
184 184 174 171 167 164 165 165 170 170 157 148 138 131 115 112 104 93 75 63 57 54 51 50 48 47 50 46 44 40 33 25 19 13 4 3 6 12 16 22 24 24 28
192 192 180 174 173 176 175 179 176 172 168 160 149 137 129 128 112 93 77 67 60 53 56 52 50 49 47 43 40 40 27 20 5 9 3 6 9 357 4 12 21 29 31
203 195 185 182 180 182 187 186 181 173 170 159 153 149 144 133 120 104 78 67 60 57 59 57 55 54 45 34 20 15 6 1 1 344 338 355 4 3 353 355 350 19 37
210 202 194 194 196 188 189 186 184 180 165 155 153 153 149 140 129 117 87 70 63 64 62 61 54 49 38 31 28 12 3 3 1 360 346 341 352 360 3 8 345 24 36
211 201 197 196 191 193 196 192 190 186 176 163 161 161 153 146 135 121 103 85 75 71 71 65 56 46 40 28 24 11 0 350 349 351 347 346 338 351 0 6 7 40 55
213 208 203 202 197 196 197 200 195 193 183 184 181 177 173 163 156 147 118 106 90 79 74 69 66 57 42 26 18 2 357 353 347 348 349 344 345 355 355 9 13 16 21
214 212 212 204 200 199 201 198 200 193 196 200 200 195 195 192 186 199 178 145 124 95 75 72 40 45 44 23 14 359 353 353 353 350 348 343 345 345 348 352 359 7 5
223 218 214 210 204 201 205 202 203 205 207 212 210 209 204 201 195 193 185 185 209 189 195 150 54 349 4 21 12 355 343 340 340 340 340 339 337 338 338 343 345 345 354
222 217 215 210 211 202 207 202 210 209 211 216 217 214 211 211 205 198 202 198 222 216 217 228 203 146 316 347 324 331 331 332 332 329 328 330 329 327 329 333 335 334 338
219 219 218 217 212 212 207 215 215 208 220 221 225 226 222 210 206 213 192 199 224 204 214 207 222 267 282 294 296 302 299 306 319 324 324 323 326 325 326 327 329 330 330
218 219 220 217 212 212 212 211 214 214 216 228 226 228 226 229 228 227 226 216 228 244 212 205 213 265 272 290 288 298 295 291 298 309 318 322 323 325 328 328 328 327 327
224 222 224 217 228 218 208 215 207 220 216 225 227 237 233 231 235 230 227 226 242 262 239 245 282 285 281 279 289 300 304 305 296 297 306 313 320 321 323 324 328 328 327
224 225 225 225 219 218 219 219 220 220 229 226 221 231 232 230 240 233 228 240 248 258 270 274 290 288 288 287 292 296 298 300 304 300 295 300 309 314 320 323 325 325 326
225 226 226 226 231 234 231 227 224 228 234 220 226 236 226 236 234 239 237 243 251 256 266 281 289 291 289 292 296 296 295 295 295 298 298 297 299 305 312 316 319 323 324